Location: Laterina
(43.5167°N, 11.7167°E)
Time: 23:14:26
(UTC+00:00)

Cosmos 1125 Rocket - Pass Details

Date: 19 June 2021
Orbit: 757 x 780 km, 74.0° (Epoch: 29 July)

Event Time Altitude Azimuth Distance (km) Brightness Sun altitude
Rises 01:42:02 0° 341° (NNW) 3,243 7.3 -15.0°
Reaches altitude 10° 01:44:26 10° 344° (NNW) 2,316 6.5 -14.7°
Maximum altitude 01:49:40 68° 68° (ENE) 833 3.9 -14.2°
Drops below altitude 10° 01:54:55 10° 151° (SSE) 2,315 5.8 -13.6°
Sets 01:57:18 0° 154° (SSE) 3,242 6.5 -13.3°
